Weather History for KCUB - February, 2014

Change the Weather History Date:

Friday, February 21, 2014

  Actual Average Record
Temperature  
Mean Temperature 58 °F 50 °F  
Max Temperature 70 °F 62 °F 76 °F (2011)
Min Temperature 45 °F 39 °F 25 °F (2009)
Degree Days  
Heating Degree Days 7 14  
Month to date heating degree days 340 341  
Since 1 July heating degree days 1898 1833  
Cooling Degree Days 0 0  
Month to date cooling degree days 6 0  
Year to date cooling degree days 6 1  
Growing Degree Days 8 (Base 50)    
Moisture  
Dew Point 55 °F    
Average Humidity 76    
Maximum Humidity 93    
Minimum Humidity 30    
Precipitation  
Precipitation 0.42 in 0.14 in 0.66 in (2008)
Month to date precipitation 2.49 2.63  
Year to date precipitation 6.25 6.26  
Sea Level Pressure  
Sea Level Pressure 29.95 in    
Wind  
Wind Speed 9 mph (SW)    
Max Wind Speed 20 mph    
Max Gust Speed 27 mph    
Visibility 8 miles    
Events Rain    
T = Trace of Precipitation, MM = Missing Value Source: NWS Daily Summary

Daily Weather History Graph

Daily Weather History Graph

Search for Another Location

Airport or City:

Trip Planner

Search our weather history database for the weather conditions in past years. The results will help you decide how hot, cold, wet, or windy it might be!

Date:

Astronomy

Feb. 21, 2014 Rise Set
Actual Time 7:02 AM EST 6:13 PM EST
Civil Twilight 6:36 AM EST 6:38 PM EST
Nautical Twilight 6:07 AM EST 7:07 PM EST
Astronomical Twilight 5:38 AM EST 7:36 PM EST
Moon No Moon Rise 10:43 AM EST (2/21)
Length of Visible Light 12h 02m
Length of Day
11h 11m
Waning Gibbous, 61% of the Moon is Illuminated
Feb 21
Waning Gibbous
Feb 22
Last Quarter
Mar 1
New
Mar 8
First Quarter
Mar 16
Full

Hourly Weather History & Observations

Time (EST) Temp. Dew Point Humidity Pressure Visibility Wind Dir Wind Speed Gust Speed Precip Events Conditions
12:04 AM 66.9 °F 62.1 °F 84% 30.01 in 10.0 mi South 10.4 mph - N/A   Mostly Cloudy
12:53 AM 66.9 °F 63.0 °F 87% 29.99 in 10.0 mi South 13.8 mph 21.9 mph N/A   Overcast
1:53 AM 66.9 °F 62.1 °F 84% 29.98 in 10.0 mi South 12.7 mph 21.9 mph N/A   Scattered Clouds
2:53 AM 66.0 °F 62.1 °F 87% 29.97 in 10.0 mi South 12.7 mph - N/A   Clear
3:53 AM 64.9 °F 61.0 °F 87% 29.94 in 10.0 mi South 8.1 mph - N/A   Clear
4:53 AM 64.0 °F 61.0 °F 90% 29.93 in 10.0 mi South 9.2 mph - N/A   Clear
5:53 AM 64.9 °F 61.0 °F 87% 29.90 in 10.0 mi South 11.5 mph - N/A   Clear
6:53 AM 64.9 °F 61.0 °F 87% 29.91 in 10.0 mi SSW 9.2 mph - N/A   Clear
7:53 AM 66.9 °F 62.1 °F 84% 29.93 in 10.0 mi SSW 11.5 mph 18.4 mph N/A   Mostly Cloudy
8:02 AM 66.9 °F 62.1 °F 84% 29.93 in 10.0 mi South 10.4 mph - N/A   Overcast
8:53 AM 68.0 °F 62.1 °F 81% 29.93 in 10.0 mi SSW 12.7 mph 21.9 mph N/A   Mostly Cloudy
9:01 AM 69.1 °F 62.1 °F 78% 29.94 in 10.0 mi SSW 13.8 mph 24.2 mph N/A   Mostly Cloudy
9:16 AM 69.1 °F 62.1 °F 78% 29.94 in 10.0 mi SSW 13.8 mph 21.9 mph N/A   Mostly Cloudy
9:53 AM 68.0 °F 63.0 °F 84% 29.94 in 1.2 mi SW 10.4 mph - 0.14 in Rain Light Rain
9:55 AM 66.9 °F 63.0 °F 87% 29.94 in 0.8 mi SW 9.2 mph - 0.05 in Rain Heavy Rain
10:04 AM 66.0 °F 64.0 °F 93% 29.95 in 1.2 mi SW 12.7 mph 18.4 mph 0.11 in Rain Rain
10:17 AM 66.0 °F 64.0 °F 93% 29.95 in 2.0 mi SW 10.4 mph - 0.18 in Rain Rain
10:26 AM 66.0 °F 63.0 °F 90% 29.95 in 5.0 mi SW 11.5 mph - 0.19 in Rain Rain
10:44 AM 66.0 °F 62.1 °F 87% 29.95 in 4.0 mi SW 8.1 mph 19.6 mph 0.25 in Rain Rain
10:53 AM 64.9 °F 63.0 °F 93% 29.91 in 5.0 mi South 10.4 mph - 0.27 in Rain Rain
11:53 AM 64.0 °F 62.1 °F 93% 29.91 in 10.0 mi SW 6.9 mph - 0.01 in   Mostly Cloudy
12:38 PM 64.0 °F 61.0 °F 90% 29.91 in 10.0 mi SSW 8.1 mph - N/A   Overcast
12:53 PM 64.0 °F 60.1 °F 87% 29.91 in 10.0 mi WSW 9.2 mph - N/A   Overcast
1:53 PM 66.0 °F 55.9 °F 70% 29.91 in 10.0 mi WSW 6.9 mph - N/A   Overcast
2:53 PM 70.0 °F 52.0 °F 53% 29.89 in 10.0 mi WSW 10.4 mph - N/A   Scattered Clouds
3:53 PM 69.1 °F 48.0 °F 47% 29.91 in 10.0 mi West 13.8 mph - N/A   Mostly Cloudy
4:53 PM 66.9 °F 43.0 °F 42% 29.94 in 10.0 mi WSW 12.7 mph - N/A   Clear
5:53 PM 64.9 °F 42.1 °F 43% 29.96 in 10.0 mi West 13.8 mph - N/A   Clear
6:53 PM 62.1 °F 30.9 °F 31% 29.99 in 10.0 mi WNW 5.8 mph - N/A   Clear
7:53 PM 60.1 °F 30.0 °F 32% 30.01 in 10.0 mi West 8.1 mph - N/A   Clear
8:53 PM 52.0 °F 37.0 °F 57% 30.03 in 10.0 mi Calm Calm - N/A   Clear
9:53 PM 48.0 °F 39.0 °F 71% 30.04 in 10.0 mi Calm Calm - N/A   Clear
10:53 PM 46.9 °F 39.0 °F 74% 30.05 in 10.0 mi Calm Calm - N/A   Clear
11:53 PM 45.0 °F 37.9 °F 76% 30.05 in 10.0 mi Calm Calm - N/A   Clear